Back to catalog

CZ-6A DEB

AlivePO
NORAD 55216·DEBRIS·🇨🇳 China

Launched Nov 11, 2022 from Taiyuan Satellite Launch Center

Loading…

Next Passes (next 24 hours)

TLE

FreshSource: Space-Track

Epoch: Sep 14, 2026, 02:26 UTC

1 55216U 22151WH  26257.10159114  .00006107  00000-0  10807-2 0  9996
2 55216  98.6049 316.1973 0072124  31.5121 329.0371 14.66036682197437

Track CZ-6A DEB in real time with AllMySat

Download on the App Store